DSP F7

operational
NORAD ID: 9803 Int'l Des: 1977-007 Owner: SAMSO Country: US
HEOCIRCULAR

About DSP F7

Description loading...

Live Position

Loading 3D Globe...

Upcoming Passes

Altitude History

Altitude vs Time

uPlot chart will show altitude changes over time

Two-Line Element Set

1 09803U 77007A 26061.16497182 -.00000123 00000-0 00000-0 0 9991
2 09803 4.9988 285.2293 0081243 35.7706 283.2151 0.97529222 23608
Epoch: Mar 2, 2026 • Age: 29 hours

Current Status

Altitude 36439.5 km
Velocity 3.06 km/s
Sub-Earth Point -2.63°S, 13.75°E
Type military

Large Constellations

Loading constellations...